Other Public Products
Issued by NWS Grand Forks, ND

Home | Current Version | Previous Version | Text Only | Print | Product List | Glossary Off
Versions: 1 2 3 4 5 6 7 8 9 10 11 12 13 14 15 16 17 18 19 20 21 22 23 24 25 26 27 28 29 30 31 32 33 34 35 36 37 38 39 40 41 42 43 44 45 46 47 48 49 50

000
FPUS83 KFGF 181431
OPUFGF
PRAIRIE TO PINES WEATHER ROUNDUP
NATIONAL WEATHER SERVICE EASTERN NORTH DAKOTA/GRAND FORKS ND
800 AM CST WED JAN 18 2017

 **SATELLITE DATA USED TO AUGMENT SKY COVER AT AUTOMATED STATIONS**
 *****  WEATHER ACROSS EASTERN NORTH DAKOTA  *****

CITY           SKY/WX    TMP DP  RH WIND       PRES   REMARKS
GRAND FORKS    FAIR      22  16  78 S10       29.71R WCI  11
GRAND FORKS AF FAIR      23  18  81 S8        29.70R WCI  13
GRAND CITY NWS NOT AVBL
BUXTON           N/A     25  21  84 SW8         N/A  WCI  16
DEVILS LAKE    FAIR      26  22  84 SW13      29.68S WCI  15
FARGO          FAIR      20  16  84 S9        29.78R WCI   9
WAHPETON ARPT  FAIR      19  16  86 SE7       29.81S WCI  10
$$

 *****  WEATHER ACROSS CENTRAL AND WESTERN NORTH DAKOTA  *****

CITY           SKY/WX    TMP DP  RH WIND       PRES   REMARKS
JAMESTOWN      FAIR      29  21  72 W9        29.72F WCI  20
BISMARCK       FAIR      18  12  77 NE8       29.76S WCI   8
MINOT          FAIR      34  26  72 SW12      29.66S
MINOT AFB      FAIR      33  27  79 SW7       29.64S
GARRISON         N/A     25  20  81 E5        29.71R WCI  19
WILLISTON      FAIR      24  20  84 SW3       29.67F
DICKINSON      FAIR      33  21  61 SW9       29.70R
HETTINGER      FAIR      25  17  72 CALM      29.77S
$$

 *****  OTHER OBSERVATIONS NORTHEAST NORTH DAKOTA  *****

CITY           SKY/WX    TMP DP  RH WIND       PRES   REMARKS
WALHALLA       NOT AVBL
LANGDON        NOT AVBL
CAVALIER         N/A     25  23  93 SW7       29.66S WCI  17
GRAFTON        FAIR      19  16  86 S9        29.71R WCI   9
CANDO          NOT AVBL
FORT TOTTEN      N/A     32  25  75 SW2       29.95S
ROLLA            N/A    N/A N/A N/A MISG        N/A
RUGBY            N/A     23  21  93 CALM      29.68R
 ***** THE ABOVE OBSERVATIONS ARE NON NWS ARE NOT QUALITY
        CONTROLLED AND MAY MIS-REPORT RAIN FOR SNOW...
$$

 *****  OTHER OBSERVATIONS SOUTHEAST NORTH DAKOTA *****

CITY           SKY/WX    TMP DP  RH WIND       PRES   REMARKS
COOPERSTOWN    FAIR      23  19  86 SW15      29.72S WCI  10
VALLEY CITY    FAIR      23  21  93 E6        29.76R WCI  16
OAKES          NOT AVBL
GWINNER        FAIR      25  19  80 SW17      29.79S WCI  11
SHEYENNE NWR     N/A     20  14  77 SW7       29.95S WCI  11
BUFFALO          N/A     24  16  70 CALM        N/A
WYNDMERE         N/A     14  12  92 S3          N/A
 ***** THE ABOVE OBSERVATIONS ARE NON NWS ARE NOT QUALITY
       CONTROLLED AND MAY MIS-REPORT RAIN FOR SNOW...
$$

  *****  WEATHER ACROSS NORTHERN MINNESOTA  *****

CITY           SKY/WX    TMP DP  RH WIND       PRES   REMARKS
FLAG ISLAND    FAIR      12  10  92 SE7       29.65F WCI   2
WARROAD        FAIR      19  16  86 SW7       29.67F WCI  10
ROSEAU         FAIR      18  14  86 S9        29.68S WCI   6
HALLOCK        FAIR      18  16  93 S13       29.67S WCI   4
THF RVR FALLS  FAIR      21  17  84 SW13      29.72R WCI   9
HALSTAD          N/A     19  14  79 SW13        N/A  WCI   7
FOSSTON        FAIR      21  16  79 S14       29.74R WCI   8
BAUDETTE       FAIR      18  14  84 CALM      29.68R
WASKISH        FAIR      16  12  86 CALM      29.71F
CROOKSTON      FAIR      19  16  86 S10       29.74S WCI   8
$$
  *****  WEATHER ACROSS CENTRAL AND WEST MINNESOTA  *****

CITY           SKY/WX    TMP DP  RH WIND       PRES   REMARKS
BEMIDJI        FAIR      26  20  79 SW7       29.71F WCI  18
PARK RAPIDS    FAIR      16  12  84 S7        29.76R WCI   6
WADENA         FAIR      21  19  93 SW6       29.78F WCI  14
DETROIT LAKES  FAIR      27  21  80 SW9       29.78R WCI  17
MOORHEAD       FAIR      21  18  86 S10       29.78F WCI  10
FERGUS FALLS   FAIR      19  18  93 S7        29.86S WCI  10
ELBOW LAKE     FAIR      20  18  93 S8        29.82F FOG     WCI  10
MORRIS MN      FAIR      19  18  93 S10       29.82S WCI   8
STAPLES        FAIR      19  18  93 S6        29.79F WCI  11
WHEATON        FAIR      21  19  93 E8        29.84S WCI  12
$$
  *****  WEATHER ELSEWHERE ACROSS MINNESOTA  *****

CITY           SKY/WX    TMP DP  RH WIND       PRES   REMARKS
DULUTH         FAIR      27  25  92 SW15      29.77R FOG     WCI  15
INTRNTL FALLS  FAIR      21  16  81 SW5       29.70R WCI  15
ELY            FAIR      25  19  80 SW6       29.74S WCI  18
CLOQUET        FAIR      27  23  86 SW9       29.79R WCI  17
BRAINERD       FAIR      23  20  88 S9        29.82R FOG     WCI  13
HIBBING        FAIR      18  18 100 CALM      29.76R FOG
ALEXANDRIA     FAIR      24  21  88 SW10      29.82R WCI  14
SAINT CLOUD    FAIR      22  21  96 S5        29.86R FOG     WCI  16
MINNEAPOLIS    FAIR      31  26  82 S9        29.90F WCI  23
$$

  *****  WEATHER ACROSS SOUTH DAKOTA  *****

CITY           SKY/WX    TMP DP  RH WIND       PRES   REMARKS
SIOUX FALLS    FAIR      20  19  96 N3        29.89R
BROOKINGS      FAIR      20  18  92 SW8       29.86S WCI  10
WATERTOWN      FAIR      16  13  88 S5        29.83F WCI   9
HURON          FAIR      16  13  88 S7        29.85F WCI   6
SISSETON         N/A     37  21  52 NW9       29.80R
ABERDEEN       FAIR      15  10  80 S10       29.83S WCI   2
MITCHELL       FAIR      19  18  95 S5        29.88R WCI  12
PIERRE         FAIR      14  10  84 CALM      29.82F
MOBRIDGE       FAIR      17  10  74 SE7       29.78S WCI   8
RAPID CITY     FAIR      26  18  71 CALM      29.77F
$$

  *****  SOME WEATHER IN NEARBY STATES *****

CITY           SKY/WX    TMP DP  RH WIND       PRES   REMARKS
GLASGOW MT     FAIR      24  20  84 SE9       29.58S WCI  14
GREAT FALLS MT FAIR      42  23  46 S7        29.59F
CHEYENNE WY    FAIR      27  10  49 W13       29.91F WCI  16
SCOTTSBLUFF NE FAIR      22  13  68 CALM      29.91S
OMAHA NE       FAIR      27  22  81 SE10      30.04S WCI  17
DES MOINES IA  FOG       31  30  96 S7        30.08F VSB 1/8 WCI  24
DAVENPORT IA   CLOUDY    31  29  92 W5        30.13S
CHICAGO IL     CLOUDY    34  32  92 W10       30.13R
EAU CLAIRE WI  FAIR      26  25  96 S8        29.95F WCI  18
LA CROSSE WI   FAIR      33  28  81 S13       30.04F WCI  24
$$

  *****  SOME NATIONAL WEATHER *****

CITY           SKY/WX    TMP DP  RH WIND       PRES   REMARKS
LA GUARDIA NY  CLOUDY    42  38  85 NE13      29.93S
RALEIGH NC     PTSUNNY   62  57  83 W7        29.97R
ATLANTA GA     CLOUDY    63  61  93 NW8       30.15R
NEW ORLEANS LA FOG       68  68 100 SE3       30.15R VSB 1/2
OKLAHOMA CITY  CLOUDY    42  39  89 W3        30.13R
ALBUQUERQUE NM LGT RAIN  36  34  92 CALM      30.13S
SALT LAKE CITY FAIR      21  18  88 S6        30.16F WCI  13
LOS ANGELES CA FAIR      49  45  86 NE3       30.17R
BOISE ID       CLOUDY    16  11  80 S5        30.05F HAZE    WCI   9
SEATTLE WA     LGT RAIN  46  44  93 SE16      29.37F
$$

*** WEATHER ACROSS MANITOBA...SASKATCHEWAN AND ONTARIO ***
                ***ONTARIO***

CITY           SKY/WX    TMP DP  RH WIND       PRES   REMARKS
GERALDTON      MOCLDY    32  27  80 SW12      29.63R WCI  23
THUNDER BAY    PTCLDY    14  12  92 NW6       29.73R WCI   5
SIOUX LOOKOUT  MOCLDY    23  19  86 SW6       29.64R WCI  16
TORONTO        CLOUDY    36  34  93 W8        29.93R
BIG TROUT LK   FLURRIES  30  27  86 W9G17     29.50R WCI  22
PICKLE LAKE    CLOUDY    25  21  86 SW7       29.58R WCI  17
DRYDEN         MOCLDY    21  18  86 SW6       29.64R WCI  14
KENORA         PTCLDY    18  14  86 S8        29.64R WCI   7
$$
                *** MANITOBA***

CITY           SKY/WX    TMP DP  RH WIND       PRES   REMARKS
BRANDON        PTCLDY    14  10  85 NW5       29.62R WCI   6
DAUPHIN        CLEAR     30  27  86 W10       29.53F WCI  21
ISLAND LAKE    PTCLDY    19  18  93 S2        29.56
PILOT MOUND      N/A     23  21  93 SW6         N/A  WCI  16
THE PAS        MOCLDY    25  21  86 S3        29.48R
THOMPSON       CLOUDY    34  30  86 VRB2      29.50S
WINNIPEG       PTCLDY    19  16  86 S8        29.62R WCI   9
LYNN LAKE      CLOUDY    19  19 100 SE5       29.45S FOG     WCI  13
CHURCHILL      LGT SNOW   9   7  92 N15       29.55R DRFTSNOWWCI  -8
GILLAM         CLOUDY    34  28  80 N8        29.51R
$$
                ***SASKATCHEWAN***

CITY           SKY/WX    TMP DP  RH WIND       PRES   REMARKS
ESTEVAN        MOCLDY    28  25  86 SW15      29.61F WCI  17
KINDERSLEY     MOCLDY    36  28  75 S9        29.31F
LLOYDMINSTER   MOCLDY    32  28  86 S7        29.22S
PRINCE ALBERT  MOCLDY    19  18  93 E3        29.35S
REGINA         PTCLDY    25  21  86 SE10      29.51F WCI  15
YORKTON        CLEAR     28  27  93 S10       29.51S WCC1F1C2F2C3F3C4F4C5F5C6F6C7F7C8F8C9F9CaFaCbFbCcFcCdFdCe!



USA.gov is the U.S. government's official web portal to all federal, state and local government web resources and services.